When you browse on this site, cookies collect data to enhance your experience and personalize the content and advertising you see.
Visit our Privacy Policy to learn more. By continuing to use the site, you agree to this use of cookies and data.
  • în România
  • Lista ţărilor
  • Pe 7 zile
  • Temperatura apei
  • Hartă satelitară
  • Meteo pe hartă
  • Widget-uri
  • user-avatar
    Intrare

    Meteo pe oră la Shannon

    Astăzi, 26 Martie, Marţi

    Timp Temperatura Precipitaţii Vânt Presiune Umiditate
    00:00 +5°C° 0 mm 1 m/s 776 mmHg 90%
    01:00 +4°C° 0 mm 0 m/s 776 mmHg 90%
    02:00 +4°C° 0 mm 0 m/s 776 mmHg 90%
    03:00 +4°C° 0 mm 1 m/s 776 mmHg 91%
    04:00 +4°C° 0 mm 1 m/s 776 mmHg 92%
    05:00 +4°C° 0 mm 1 m/s 776 mmHg 92%
    06:00 +6°C° 0 mm 1 m/s 776 mmHg 89%
    07:00 +7°C° 0 mm 1 m/s 776 mmHg 85%
    08:00 +9°C° 0 mm 1 m/s 776 mmHg 81%
    09:00 +9°C° 0 mm 2 m/s 776 mmHg 77%
    10:00 +10°C° 0 mm 2 m/s 776 mmHg 73%
    11:00 +13°C° 0 mm 2 m/s 776 mmHg 69%
    12:00 +13°C° 0 mm 2 m/s 776 mmHg 68%
    13:00 +13°C° 0 mm 2 m/s 775 mmHg 68%
    14:00 +14°C° 0 mm 2 m/s 775 mmHg 67%
    15:00 +13°C° 0 mm 2 m/s 775 mmHg 72%
    16:00 +12°C° 0 mm 2 m/s 775 mmHg 77%
    17:00 +10°C° 0 mm 2 m/s 775 mmHg 82%
    18:00 +8°C° 0 mm 2 m/s 775 mmHg 87%
    19:00 +8°C° 0 mm 1 m/s 776 mmHg 91%
    20:00 +6°C° 0 mm 1 m/s 776 mmHg 95%
    21:00 +6°C° 0 mm 1 m/s 776 mmHg 95%
    22:00 +5°C° 0 mm 1 m/s 776 mmHg 95%
    23:00 +5°C° 0 mm 1 m/s 776 mmHg 95%

    Mâine, 27 Martie, Miercuri

    Timp Temperatura Precipitaţii Vânt Presiune Umiditate
    00:00 +5°C° 0 mm 1 m/s 776 mmHg 96%
    01:00 +5°C° 0 mm 1 m/s 776 mmHg 96%
    02:00 +5°C° 0 mm 1 m/s 776 mmHg 96%
    03:00 +4°C° 0 mm 1 m/s 776 mmHg 96%
    04:00 +4°C° 0 mm 1 m/s 776 mmHg 95%
    05:00 +4°C° 0 mm 1 m/s 776 mmHg 95%
    06:00 +5°C° 0 mm 1 m/s 776 mmHg 90%
    07:00 +7°C° 0 mm 1 m/s 776 mmHg 85%
    08:00 +9°C° 0 mm 1 m/s 777 mmHg 80%
    09:00 +10°C° 0 mm 1 m/s 777 mmHg 75%
    10:00 +12°C° 0 mm 2 m/s 777 mmHg 70%
    11:00 +13°C° 0 mm 2 m/s 777 mmHg 66%
    12:00 +14°C° 0 mm 2 m/s 777 mmHg 66%
    13:00 +13°C° 0 mm 3 m/s 777 mmHg 67%
    14:00 +13°C° 0 mm 3 m/s 777 mmHg 67%
    15:00 +12°C° 0 mm 3 m/s 777 mmHg 72%
    16:00 +12°C° 0 mm 2 m/s 777 mmHg 78%
    17:00 +10°C° 0 mm 2 m/s 777 mmHg 83%
    18:00 +9°C° 0 mm 2 m/s 777 mmHg 87%
    19:00 +8°C° 0 mm 1 m/s 777 mmHg 91%
    20:00 +7°C° 0 mm 1 m/s 778 mmHg 95%
    21:00 +6°C° 0 mm 1 m/s 778 mmHg 95%
    22:00 +6°C° 0 mm 1 m/s 778 mmHg 95%
    23:00 +6°C° 0 mm 1 m/s 778 mmHg 96%

    Poimâine, 28 Martie, Joi

    Timp Temperatura Precipitaţii Vânt Presiune Umiditate
    00:00 +5°C° 0 mm 1 m/s 778 mmHg 96%
    01:00 +5°C° 0 mm 1 m/s 778 mmHg 96%
    02:00 +5°C° 0 mm 1 m/s 778 mmHg 96%
    03:00 +5°C° 0 mm 1 m/s 778 mmHg 96%
    04:00 +4°C° 0 mm 1 m/s 778 mmHg 95%
    05:00 +4°C° 0 mm 1 m/s 778 mmHg 94%
    06:00 +6°C° 0 mm 1 m/s 778 mmHg 90%
    07:00 +7°C° 0 mm 1 m/s 778 mmHg 86%
    08:00 +9°C° 0 mm 1 m/s 778 mmHg 81%
    09:00 +11°C° 0 mm 1 m/s 778 mmHg 74%
    10:00 +13°C° 0 mm 2 m/s 777 mmHg 66%
    11:00 +14°C° 0 mm 2 m/s 777 mmHg 59%
    12:00 +15°C° 0 mm 2 m/s 777 mmHg 58%
    13:00 +16°C° 0 mm 2 m/s 776 mmHg 58%
    14:00 +17°C° 0 mm 2 m/s 776 mmHg 57%
    15:00 +15°C° 0 mm 2 m/s 776 mmHg 64%
    16:00 +14°C° 0 mm 2 m/s 775 mmHg 70%
    17:00 +13°C° 0 mm 2 m/s 775 mmHg 77%
    18:00 +10°C° 0 mm 2 m/s 775 mmHg 82%
    19:00 +8°C° 0 mm 2 m/s 775 mmHg 86%
    20:00 +6°C° 0 mm 2 m/s 775 mmHg 90%
    21:00 +6°C° 0 mm 2 m/s 775 mmHg 91%
    22:00 +5°C° 0 mm 2 m/s 775 mmHg 91%
    23:00 +4°C° 0 mm 2 m/s 774 mmHg 91%

    29 Martie, Vineri

    Timp Temperatura Precipitaţii Vânt Presiune Umiditate
    00:00 +4°C° 0 mm 2 m/s 774 mmHg 91%
    01:00 +4°C° 0 mm 2 m/s 773 mmHg 92%
    02:00 +3°C° 0 mm 2 m/s 773 mmHg 92%
    03:00 +3°C° 0 mm 2 m/s 773 mmHg 93%
    04:00 +3°C° 0 mm 2 m/s 772 mmHg 93%
    05:00 +3°C° 0 mm 2 m/s 772 mmHg 94%
    06:00 +5°C° 0 mm 2 m/s 772 mmHg 90%
    07:00 +7°C° 0 mm 3 m/s 772 mmHg 86%
    08:00 +9°C° 0 mm 3 m/s 772 mmHg 82%
    09:00 +11°C° 0 mm 3 m/s 772 mmHg 77%
    10:00 +13°C° 0 mm 3 m/s 772 mmHg 72%
    11:00 +14°C° 0 mm 3 m/s 771 mmHg 67%
    12:00 +16°C° 0 mm 3 m/s 771 mmHg 66%
    13:00 +16°C° 0 mm 3 m/s 771 mmHg 65%
    14:00 +17°C° 0 mm 3 m/s 770 mmHg 64%
    15:00 +16°C° 0 mm 2 m/s 770 mmHg 70%
    16:00 +15°C° 0 mm 2 m/s 770 mmHg 76%
    17:00 +13°C° 0 mm 2 m/s 769 mmHg 81%
    18:00 +12°C° 0 mm 1 m/s 770 mmHg 86%
    19:00 +10°C° 0 mm 1 m/s 770 mmHg 90%
    20:00 +8°C° 0 mm 1 m/s 770 mmHg 95%
    21:00 +7°C° 0 mm 1 m/s 770 mmHg 95%
    22:00 +7°C° 0 mm 1 m/s 770 mmHg 95%
    23:00 +6°C° 0 mm 1 m/s 770 mmHg 96%

    30 Martie, Sâmbătă

    Timp Temperatura Precipitaţii Vânt Presiune Umiditate
    00:00 +5°C° 0 mm 0 m/s 769 mmHg 96%
    01:00 +5°C° 0 mm 0 m/s 769 mmHg 96%
    02:00 +5°C° 0 mm 0 m/s 769 mmHg 96%
    03:00 +5°C° 0 mm 0 m/s 769 mmHg 95%
    04:00 +5°C° 0 mm 0 m/s 769 mmHg 95%
    05:00 +7°C° 0 mm 1 m/s 769 mmHg 95%
    06:00 +8°C° 0 mm 1 m/s 769 mmHg 91%
    07:00 +8°C° 0 mm 0 m/s 769 mmHg 88%
    08:00 +10°C° 0 mm 0 m/s 769 mmHg 84%
    09:00 +11°C° 0.1 mm 1 m/s 770 mmHg 83%
    10:00 +12°C° 0.1 mm 2 m/s 770 mmHg 81%
    11:00 +11°C° 0.1 mm 3 m/s 770 mmHg 79%
    12:00 +11°C° 0.1 mm 4 m/s 770 mmHg 80%
    13:00 +11°C° 0.1 mm 4 m/s 770 mmHg 80%
    14:00 +9°C° 0.1 mm 5 m/s 770 mmHg 81%
    15:00 +9°C° 0 mm 5 m/s 771 mmHg 80%
    16:00 +8°C° 0 mm 4 m/s 771 mmHg 79%
    17:00 +8°C° 0 mm 4 m/s 771 mmHg 78%
    18:00 +7°C° 0 mm 4 m/s 772 mmHg 77%
    19:00 +6°C° 0 mm 4 m/s 773 mmHg 75%
    20:00 +7°C° 0 mm 3 m/s 773 mmHg 74%
    21:00 +4°C° 0 mm 3 m/s 774 mmHg 76%
    22:00 +3°C° 0 mm 3 m/s 774 mmHg 77%
    23:00 +2°C° 0 mm 3 m/s 774 mmHg 79%

    31 Martie, Duminică

    Timp Temperatura Precipitaţii Vânt Presiune Umiditate
    00:00 +1°C° 0 mm 3 m/s 774 mmHg 81%
    01:00 0°C° 0 mm 3 m/s 774 mmHg 84%
    02:00 +1°C° 0 mm 2 m/s 774 mmHg 86%
    03:00 -1°C° 0 mm 2 m/s 774 mmHg 87%
    04:00 -1°C° 0 mm 2 m/s 774 mmHg 88%
    05:00 -1°C° 0 mm 2 m/s 775 mmHg 89%
    06:00 0°C° 0 mm 3 m/s 775 mmHg 82%
    07:00 +2°C° 0 mm 3 m/s 775 mmHg 76%
    08:00 +4°C° 0 mm 3 m/s 775 mmHg 70%
    09:00 +5°C° 0 mm 3 m/s 775 mmHg 67%
    10:00 +8°C° 0 mm 3 m/s 775 mmHg 64%
    11:00 +10°C° 0 mm 3 m/s 775 mmHg 61%
    12:00 +10°C° 0 mm 3 m/s 775 mmHg 62%
    13:00 +9°C° 0 mm 2 m/s 775 mmHg 63%
    14:00 +9°C° 0 mm 2 m/s 775 mmHg 65%
    15:00 +10°C° 0 mm 1 m/s 775 mmHg 67%
    16:00 +10°C° 0 mm 1 m/s 775 mmHg 70%
    17:00 +8°C° 0 mm 0 m/s 775 mmHg 72%
    18:00 +7°C° 0 mm 0 m/s 775 mmHg 74%
    19:00 +7°C° 0 mm 1 m/s 775 mmHg 75%
    20:00 +6°C° 0 mm 1 m/s 775 mmHg 76%
    21:00 +6°C° 0 mm 1 m/s 775 mmHg 78%
    22:00 +6°C° 0 mm 1 m/s 775 mmHg 80%
    23:00 +4°C° 0 mm 2 m/s 775 mmHg 83%
    Arată mai mult